Temperature
17 17 17 18 14 12 14 14 14 15 15 15 15 16 15 15 15 16 16 16 16 16 15 15 15 15 15 15 15 16 16 16 16 16 16 16 15 15 15 15 15 15 15 15 15 15 15 15 15
17 17 17 16 13 14 14 14 14 14 15 15 15 15 14 14 15 15 15 15 15 15 15 15 15 15 15 15 15 15 15 15 15 15 15 15 15 15 15 15 15 15 15 15 15 14 14 14 14
16 17 17 12 12 13 15 14 13 14 15 15 14 14 14 14 15 15 15 15 15 15 15 15 15 15 15 15 15 15 15 15 15 15 15 15 15 15 15 15 15 15 15 14 14 14 14 14 14
16 16 15 12 13 13 13 13 13 13 14 14 14 13 14 14 14 14 15 15 15 15 15 15 15 15 15 15 15 15 15 15 15 15 15 15 15 15 15 15 15 15 14 14 14 14 14 14 14
16 15 12 12 13 12 12 12 13 13 13 13 13 12 13 14 14 14 14 14 14 15 15 14 14 14 15 15 15 15 15 15 15 15 15 15 15 15 15 15 15 15 14 14 14 14 14 14 14
15 12 11 11 12 12 11 12 13 12 12 13 13 12 13 13 13 14 14 14 14 14 14 14 14 14 14 14 15 14 15 15 15 15 15 15 14 14 14 14 14 14 14 14 14 14 14 14 14
13 10 11 11 11 12 12 12 12 11 11 12 13 12 12 13 13 13 13 13 13 14 14 14 14 14 14 14 14 14 14 14 14 14 14 14 14 14 14 14 14 14 14 14 14 14 14 14 13
13 9 10 10 11 12 11 12 12 12 12 12 13 12 12 12 13 13 13 13 13 13 13 13 14 14 14 14 14 14 14 14 14 14 14 14 14 14 14 14 14 14 14 14 13 13 13 13 13
13 9 10 10 10 11 11 11 11 11 12 12 12 12 12 12 12 13 13 13 13 13 13 13 13 13 13 13 14 14 14 14 14 14 14 14 14 14 14 14 13 13 13 13 13 13 13 13 13
11 9 10 10 10 10 10 10 10 11 10 11 11 12 12 12 12 12 12 13 13 13 12 12 13 13 13 13 13 13 13 14 14 14 14 13 13 13 13 13 13 13 13 13 13 13 13 13 12
9 8 9 9 10 10 10 10 10 10 9 11 11 12 12 12 12 12 12 12 12 12 12 12 12 12 12 13 13 13 13 13 13 13 13 13 13 13 13 13 13 13 13 13 13 13 13 12 12
8 8 9 9 9 9 9 9 9 10 11 11 11 11 12 11 12 12 12 12 12 12 12 12 12 12 12 12 12 13 13 13 13 13 13 13 13 13 13 13 13 13 13 13 13 13 12 12 12
7 8 8 9 9 9 9 9 9 9 11 11 11 11 11 11 11 11 11 11 11 11 11 11 11 12 12 12 12 12 12 13 13 12 13 13 13 13 13 12 13 13 13 12 12 12 12 12 12
7 7 8 8 8 8 8 8 8 9 10 10 11 11 10 10 11 11 11 11 11 11 11 11 11 11 11 11 12 12 12 12 12 12 12 12 12 12 12 12 12 12 12 12 12 12 12 12 12
8 7 7 7 8 8 8 8 7 9 10 10 10 10 10 10 10 10 10 10 10 10 10 11 11 11 11 11 11 11 12 12 12 12 12 12 12 12 12 12 12 12 12 12 12 11 11 11 11
7 7 7 7 7 7 8 8 8 9 9 8 9 9 9 9 10 10 10 10 10 10 10 10 10 10 10 10 11 11 11 11 11 11 11 12 11 11 11 11 11 11 11 11 11 11 11 11 11
6 6 7 7 6 6 6 6 7 8 8 7 8 8 9 9 9 9 9 9 10 10 10 10 10 10 10 10 10 10 11 11 11 11 11 11 11 11 11 11 11 11 11 11 11 11 11 11 10
6 6 6 6 6 6 5 5 6 7 7 6 7 7 8 8 9 9 9 9 9 9 9 9 9 9 9 10 10 10 10 10 10 10 11 11 11 10 10 10 10 10 10 10 10 10 10 10 10
6 5 6 6 6 5 5 5 5 6 6 5 6 7 7 8 8 8 9 9 9 9 9 9 9 9 9 9 9 9 9 10 10 10 10 10 10 10 10 10 10 10 10 10 9 9 9 9 9
5 5 5 5 5 5 4 4 5 5 5 6 6 6 7 7 8 8 8 8 8 8 8 8 9 9 8 8 8 9 9 9 9 10 10 10 9 9 9 9 9 9 9 9 9 9 9 9 9
5 5 5 5 5 5 4 5 5 5 5 6 6 6 7 7 7 8 8 8 8 8 8 8 8 8 8 8 8 8 8 8 9 9 9 9 9 9 9 9 9 9 8 9 9 8 8 8 8
5 5 5 5 4 4 4 5 5 5 5 5 5 6 6 7 7 7 7 7 8 8 8 8 8 8 8 8 8 8 8 8 8 8 9 9 8 8 8 8 8 8 8 8 8 8 8 8 7
5 5 4 4 4 3 3 4 5 4 5 5 5 5 6 6 7 7 7 7 7 7 7 7 7 7 7 7 7 7 7 8 8 8 8 8 8 8 8 8 8 8 7 8 7 8 7 7 7
4 4 4 3 3 4 4 4 5 4 5 5 5 5 6 6 6 7 7 7 7 7 7 7 7 7 7 7 7 7 7 7 7 7 7 7 7 7 8 7 7 7 7 7 7 7 7 7 7
4 4 4 4 3 4 3 3 4 5 4 4 4 5 6 6 6 6 6 6 6 6 6 6 6 6 6 6 6 6 6 6 6 7 7 7 7 7 7 7 7 7 7 7 7 7 7 6 6
3 4 4 5 4 3 2 3 4 4 4 5 5 5 5 6 6 6 6 6 6 6 6 6 6 6 6 6 6 6 6 6 6 6 6 6 6 7 7 7 6 7 6 6 6 6 6 6 6
3 3 3 2 2 2 3 2 3 4 3 4 4 4 5 5 5 5 5 5 5 5 5 5 5 5 5 5 5 6 6 6 6 6 6 6 6 6 6 6 6 6 6 6 6 6 6 6 6
3 2 1 2 3 4 3 3 4 4 4 3 3 3 5 5 5 5 5 5 5 5 5 5 5 5 5 5 5 5 5 5 5 5 5 5 5 5 5 5 5 5 5 5 5 5 5 5 5
2 2 2 1 1 2 3 4 4 4 3 3 3 4 4 5 5 4 4 4 4 4 4 4 4 4 5 5 5 5 5 5 4 4 4 4 5 5 5 5 5 5 5 5 5 5 5 5 5
2 2 1 2 2 0 1 3 4 2 2 2 3 4 4 4 4 4 4 4 4 4 4 4 4 4 4 4 4 4 4 4 4 4 4 4 4 4 4 4 4 5 5 5 5 5 5 5 5
Wind_Speed
11 7 2 4 5 4 2 3 2 1 0 1 0 2 5 3 2 2 1 1 2 2 2 3 4 7 8 9 9 9 9 9 9 9 9 9 9 9 9 9 9 9 9 9 9 10 10 10 10
5 3 5 5 4 1 4 3 3 2 2 0 2 3 3 1 1 1 1 1 2 2 3 3 4 6 8 9 9 8 8 9 8 8 8 8 8 8 8 8 8 9 9 9 9 9 9 8 8
3 4 4 4 4 6 4 3 3 2 1 1 2 3 2 0 1 1 2 1 2 3 3 4 5 6 7 8 8 8 8 8 8 8 7 7 7 8 8 8 8 8 8 8 8 8 8 8 7
3 5 5 3 4 4 3 2 2 0 2 3 2 2 1 1 1 2 1 3 3 3 3 4 5 6 6 7 8 8 7 7 7 7 7 7 7 7 7 7 7 8 7 7 7 7 7 7 7
4 4 3 0 4 3 2 2 1 1 1 2 2 2 1 4 3 2 2 3 3 2 3 3 4 5 5 6 6 7 7 7 6 6 6 7 6 6 7 6 7 7 7 7 6 6 6 6 6
4 4 3 5 5 3 2 2 0 1 1 1 2 2 1 3 4 2 2 2 3 3 4 3 4 4 5 5 6 6 6 6 6 6 6 6 6 6 7 6 6 6 6 6 6 5 5 5 6
4 4 4 4 3 3 1 1 2 1 0 1 1 3 1 3 3 2 2 3 3 4 4 4 3 4 4 5 5 5 5 5 6 6 6 5 5 6 6 6 5 5 6 6 5 5 5 5 6
4 5 3 3 4 4 1 1 1 1 1 1 2 3 2 4 3 2 4 4 4 4 3 3 4 4 3 3 4 4 4 4 4 5 5 5 5 5 6 5 5 5 5 5 4 4 4 5 5
3 3 4 6 6 3 1 1 2 2 2 1 1 1 2 1 2 4 4 3 3 3 3 3 3 3 3 3 3 3 3 4 4 4 4 5 4 4 5 5 4 4 4 4 4 4 4 5 5
4 4 6 3 3 2 0 0 1 2 2 1 1 2 3 2 3 3 2 1 1 1 1 2 2 2 3 2 3 3 3 3 4 3 4 4 4 4 4 4 4 4 3 3 3 3 3 4 4
3 4 2 0 0 1 0 1 1 2 2 4 3 3 2 2 2 1 1 1 1 1 1 1 2 2 2 2 2 3 3 3 3 3 3 4 4 3 3 3 2 2 2 2 2 2 2 3 3
3 0 1 0 1 0 1 1 1 3 5 3 3 2 2 1 2 3 2 2 2 1 1 2 2 2 2 2 2 2 2 2 1 2 3 3 3 2 2 2 2 2 1 1 1 1 1 2 2
2 1 0 1 1 1 1 2 3 5 5 3 1 1 2 3 3 3 2 2 1 1 1 1 2 1 1 1 1 1 1 1 1 1 2 3 3 2 2 1 1 2 1 1 1 1 1 1 1
1 1 1 2 1 1 1 3 2 6 2 0 1 2 3 4 4 3 2 2 2 2 2 1 1 1 1 1 0 0 0 1 1 1 1 2 3 3 2 2 1 1 2 2 2 2 2 1 2
1 1 3 2 1 1 1 5 5 5 1 1 3 3 3 4 3 4 4 4 3 3 2 1 1 1 1 1 1 1 1 1 1 1 2 2 3 3 3 2 2 2 2 2 1 1 1 1 1
2 2 1 3 0 1 2 7 4 2 2 3 4 4 4 4 4 4 3 4 3 2 2 2 1 1 1 1 1 1 1 1 1 2 2 2 3 4 3 3 2 2 2 1 1 1 1 1 1
2 1 3 4 1 0 3 7 5 2 2 5 5 5 4 5 5 4 3 4 3 2 2 2 2 1 2 2 2 1 1 2 2 2 2 3 3 4 3 3 3 2 1 1 1 1 1 1 2
3 2 3 4 3 1 4 9 8 4 4 6 6 6 5 5 6 4 3 3 2 2 2 2 2 2 2 2 2 1 2 2 2 2 3 3 3 4 3 2 2 3 2 2 1 2 1 1 1
3 2 3 4 3 2 6 10 11 6 5 6 6 6 7 6 5 3 2 2 2 2 1 2 2 2 1 1 2 2 2 2 2 3 3 4 4 4 3 3 3 3 3 3 2 1 1 1 1
2 1 3 4 3 2 5 10 9 6 5 6 7 7 7 5 4 3 2 2 2 3 3 3 3 3 3 2 2 2 3 3 3 3 3 5 5 5 4 3 4 4 4 3 3 2 1 1 1
3 4 4 4 4 3 4 8 6 4 3 4 5 5 5 5 4 4 3 3 3 3 3 3 4 4 4 3 1 2 2 2 2 2 3 4 5 5 5 5 4 4 5 5 5 5 4 3 2
4 3 4 3 1 4 1 5 7 4 4 4 4 4 4 4 4 4 3 4 4 4 4 3 4 4 4 3 2 3 3 4 4 3 3 4 4 5 5 5 5 5 5 5 5 5 4 4 4
3 1 2 1 1 3 1 3 8 3 5 5 4 4 5 4 4 4 4 4 4 3 3 3 3 3 4 3 4 4 5 4 3 3 3 4 4 5 5 5 5 5 5 6 6 5 5 5 5
3 3 2 2 2 4 4 5 7 4 6 4 4 4 4 3 3 3 3 3 3 3 3 3 3 3 3 3 4 4 5 4 4 4 4 4 4 4 5 5 5 5 5 6 6 6 7 6 5
3 3 3 3 2 6 2 4 9 6 5 5 5 5 4 3 3 3 3 3 4 4 3 3 3 4 4 4 4 4 5 5 6 5 5 5 4 4 5 5 5 5 6 6 6 6 6 7 6
2 4 4 4 5 5 2 7 8 4 3 3 3 3 2 3 3 3 4 4 4 4 4 4 4 5 4 4 5 4 4 4 4 5 5 5 5 5 5 5 5 6 6 6 6 6 7 6 7
4 3 3 4 0 3 6 7 8 2 2 1 1 1 3 3 3 3 4 4 4 5 5 5 5 5 5 5 5 5 4 5 5 5 6 5 5 5 5 5 6 6 6 6 6 6 7 7 7
2 5 4 3 2 5 6 6 5 4 3 2 2 3 4 4 4 4 4 5 4 4 4 5 5 5 6 5 5 5 5 5 5 5 6 6 6 5 5 6 6 6 6 6 6 5 6 7 7
3 3 3 3 3 4 4 7 5 6 4 4 4 4 4 5 5 5 5 5 5 4 4 5 5 6 6 6 6 6 6 6 6 6 7 7 6 6 6 6 6 7 7 6 6 6 6 7 7
3 5 6 4 4 4 4 8 4 3 3 3 5 5 5 5 5 5 5 5 5 5 5 5 6 6 6 7 6 6 6 6 6 6 7 7 7 6 6 6 7 7 7 7 7 7 7 7 8
Wind_Direction
338 343 45 55 58 57 222 236 216 223 227 333 40 118 134 145 164 187 295 103 92 126 128 143 141 149 143 138 132 127 122 118 116 114 112 110 108 107 107 104 103 101 98 96 93 92 90 90 87
336 358 52 62 100 174 254 235 222 223 195 90 48 78 82 60 358 50 336 328 90 106 102 111 121 140 146 142 138 134 129 124 122 120 117 114 113 113 112 109 108 105 102 100 97 92 91 91 90
344 43 80 84 135 189 215 216 217 272 289 66 56 46 96 277 317 249 263 158 89 80 92 106 124 127 141 145 143 141 137 131 127 124 120 115 113 117 116 113 113 110 105 101 97 96 94 92 91
56 49 58 91 207 216 217 237 233 213 24 41 96 48 5 1 294 257 193 128 101 76 84 113 123 128 134 144 146 142 140 138 135 132 128 122 116 119 119 117 117 114 109 106 100 96 96 91 90
57 79 79 205 236 240 243 273 255 125 45 22 92 116 321 349 3 55 106 110 105 81 74 109 124 126 132 135 143 148 146 143 143 141 137 133 130 126 124 124 123 121 116 111 106 102 100 94 96
59 77 120 219 237 265 278 284 22 61 82 44 90 124 240 354 26 31 66 71 70 81 67 89 114 118 125 131 133 142 150 153 152 148 143 141 140 137 133 127 130 128 125 118 112 109 108 103 104
112 117 176 202 220 256 266 307 135 153 168 245 172 133 278 340 345 12 56 63 59 65 63 66 85 105 119 125 129 137 140 150 154 151 148 144 141 140 142 135 131 134 131 125 118 111 108 106 108
120 118 155 197 203 237 294 357 82 143 226 303 128 146 232 282 321 44 65 60 55 53 48 50 62 78 89 116 126 129 132 135 140 149 145 142 138 134 138 137 141 139 137 136 130 122 113 105 108
89 103 193 202 194 217 341 34 355 7 94 19 2 165 242 281 50 64 57 47 42 39 22 32 41 50 64 90 100 105 119 121 117 119 132 132 124 124 133 137 145 144 145 146 141 133 117 103 104
92 173 208 192 178 176 322 41 320 33 28 329 330 348 360 49 71 73 65 79 38 344 342 14 32 40 53 73 78 79 91 106 106 99 111 117 118 124 132 142 148 150 152 159 156 144 117 99 93
116 177 179 203 188 125 46 332 317 139 245 223 228 274 331 35 37 31 342 284 265 272 316 338 14 31 45 50 73 72 73 77 94 96 99 112 109 109 109 116 126 134 138 135 141 111 102 103 108
110 87 155 205 20 36 228 259 288 210 229 250 242 211 198 209 241 244 246 275 285 310 306 341 2 18 30 46 59 72 71 68 75 104 119 119 120 118 119 124 129 128 130 112 92 92 109 118 143
119 172 345 349 7 304 267 241 242 259 266 295 288 158 221 229 250 261 256 265 261 263 281 319 349 351 5 45 43 62 65 89 109 145 167 144 147 166 155 157 156 162 157 161 189 181 180 174 180
151 144 318 332 300 308 252 270 233 259 263 252 221 235 245 242 252 274 279 277 256 261 262 268 313 322 358 8 343 311 197 204 165 186 200 181 165 172 174 183 186 194 196 198 204 215 204 206 201
84 31 353 331 286 271 340 292 231 238 193 255 262 260 266 264 261 258 254 258 242 249 264 261 254 321 338 334 318 328 284 225 224 230 214 199 187 182 184 192 203 220 213 195 190 214 191 205 219
54 59 307 306 274 280 137 264 262 219 175 253 264 272 275 276 267 262 263 271 255 240 258 271 291 301 286 277 278 293 302 254 245 244 231 216 210 192 186 197 213 220 191 169 181 201 213 220 227
43 200 256 296 285 249 193 252 270 280 221 259 271 277 276 286 288 277 276 272 259 236 234 265 283 287 279 280 271 275 285 271 259 247 240 230 220 209 192 204 207 197 191 195 206 212 218 227 243
220 222 248 258 296 256 245 259 279 290 255 255 266 274 274 272 271 276 284 281 275 265 243 243 275 272 269 282 281 268 270 276 281 258 243 231 226 221 208 205 200 184 186 204 213 224 240 213 218
156 181 261 265 296 278 255 269 278 277 261 259 262 264 266 266 271 283 289 288 291 291 268 251 259 262 250 261 264 244 248 264 260 256 251 237 230 220 213 224 201 191 195 201 203 225 224 243 166
171 227 275 294 317 291 283 278 272 253 239 243 246 252 255 265 295 300 289 269 255 257 257 252 251 258 252 252 254 246 243 248 248 256 260 244 232 223 219 218 221 209 202 199 192 188 209 243 186
212 203 239 272 326 335 316 296 275 258 245 256 252 249 251 246 259 280 288 276 265 256 255 263 256 258 260 259 268 285 276 267 261 258 249 246 236 226 221 221 221 218 208 209 205 196 195 229 238
240 213 218 251 327 301 26 292 281 271 284 272 270 267 264 261 258 262 270 278 271 263 262 259 259 261 261 252 244 243 248 251 252 254 254 259 245 233 224 222 218 218 217 216 213 205 208 204 229
205 124 168 196 182 299 256 239 282 288 274 273 268 264 265 260 249 259 266 267 275 276 273 266 266 271 267 254 242 239 252 253 260 263 259 260 258 245 233 227 220 219 222 219 215 213 212 212 221
148 83 71 60 79 279 232 203 276 245 238 266 272 274 270 275 273 272 282 294 300 300 295 287 275 279 275 267 257 242 251 255 261 262 259 256 255 248 236 233 225 225 226 225 222 215 214 218 221
85 94 16 344 336 255 214 219 253 252 234 236 253 260 272 279 285 294 303 310 307 306 303 295 282 284 281 274 266 257 250 245 244 250 255 257 256 254 242 236 228 229 231 230 224 219 219 218 219
181 153 166 216 243 281 268 240 257 261 262 255 246 246 289 304 293 293 285 282 289 294 296 295 289 286 282 275 269 266 261 253 253 253 253 253 253 251 247 239 237 237 235 233 224 224 223 221 223
146 180 160 136 198 281 268 277 297 249 293 293 303 326 313 309 300 293 301 295 288 289 287 284 288 291 287 279 275 272 265 260 261 263 258 257 259 260 252 245 239 238 235 232 227 229 226 223 225
147 147 116 144 202 269 285 272 255 264 262 267 290 296 299 305 307 307 307 307 297 293 296 295 288 285 286 284 277 279 271 264 263 262 262 261 261 262 259 254 243 240 237 233 229 233 229 226 229
146 145 141 148 171 191 272 272 227 222 227 236 259 271 279 293 301 305 307 310 309 310 309 307 306 305 301 293 284 279 275 268 263 260 261 261 262 260 259 256 249 244 240 232 229 232 227 228 233
192 185 162 180 227 201 224 269 269 219 233 242 265 280 286 293 297 297 303 310 311 309 309 306 304 301 295 291 287 280 274 270 266 264 265 264 263 260 255 254 253 248 244 236 231 234 230 229 233
Height
1498 1499 1500 1502 1506 1519 1520 1515 1512 1511 1510 1509 1509 1510 1511 1513 1516 1519 1515 1512 1513 1514 1516 1518 1519 1521 1522 1523 1524 1525 1525 1526 1527 1528 1528 1529 1529 1530 1530 1531 1531 1532 1533 1533 1533 1534 1534 1534 1534
1498 1499 1502 1502 1513 1524 1520 1513 1512 1509 1509 1509 1509 1509 1510 1511 1512 1513 1512 1512 1513 1515 1516 1517 1519 1521 1522 1523 1524 1525 1525 1526 1527 1528 1528 1529 1529 1530 1530 1531 1532 1532 1533 1533 1534 1534 1534 1534 1534
1498 1499 1502 1506 1516 1520 1514 1511 1510 1508 1508 1508 1509 1510 1511 1512 1512 1512 1512 1512 1513 1515 1516 1517 1519 1520 1522 1523 1524 1525 1525 1526 1527 1528 1528 1529 1529 1530 1530 1531 1532 1532 1533 1533 1534 1534 1534 1534 1535
1499 1501 1503 1511 1514 1513 1510 1509 1508 1508 1508 1508 1509 1510 1511 1512 1512 1512 1512 1512 1513 1514 1516 1517 1518 1520 1521 1523 1524 1525 1525 1526 1526 1527 1528 1529 1529 1530 1530 1531 1531 1532 1532 1533 1533 1533 1534 1534 1534
1498 1500 1508 1515 1512 1510 1509 1508 1508 1507 1508 1508 1509 1510 1511 1512 1512 1512 1512 1512 1513 1514 1515 1516 1518 1519 1521 1522 1523 1524 1525 1525 1526 1527 1528 1528 1529 1529 1530 1530 1531 1531 1532 1532 1532 1533 1533 1534 1534
1499 1501 1514 1517 1512 1510 1508 1508 1507 1508 1508 1509 1509 1510 1511 1511 1511 1511 1512 1512 1513 1514 1515 1516 1517 1519 1520 1521 1522 1523 1524 1525 1525 1526 1527 1527 1528 1529 1529 1530 1530 1531 1531 1532 1532 1532 1533 1533 1533
1499 1505 1512 1512 1512 1510 1508 1507 1508 1508 1508 1509 1509 1510 1510 1510 1511 1511 1511 1512 1513 1514 1514 1515 1516 1518 1519 1520 1521 1522 1523 1524 1524 1525 1526 1527 1527 1528 1528 1529 1529 1530 1531 1531 1531 1531 1532 1532 1533
1498 1504 1511 1513 1512 1509 1508 1507 1507 1508 1508 1509 1509 1510 1510 1510 1510 1510 1511 1512 1512 1513 1514 1514 1515 1516 1517 1519 1520 1521 1521 1522 1523 1524 1525 1526 1526 1527 1527 1528 1529 1529 1529 1530 1530 1531 1531 1531 1532
1498 1507 1511 1510 1510 1507 1507 1507 1507 1508 1508 1508 1508 1509 1509 1509 1509 1509 1510 1510 1511 1512 1513 1513 1514 1515 1516 1517 1518 1519 1520 1521 1521 1522 1523 1524 1525 1525 1526 1526 1527 1528 1528 1529 1529 1530 1530 1530 1530
1498 1507 1506 1505 1506 1506 1506 1507 1507 1507 1507 1508 1508 1508 1508 1508 1507 1507 1508 1508 1509 1510 1511 1511 1512 1513 1514 1515 1516 1517 1518 1519 1520 1520 1521 1522 1523 1523 1524 1525 1526 1527 1527 1528 1528 1528 1529 1529 1529
1499 1504 1504 1504 1504 1505 1506 1507 1507 1507 1508 1506 1506 1506 1506 1506 1506 1506 1507 1507 1508 1509 1509 1510 1510 1511 1512 1513 1514 1515 1516 1517 1518 1519 1519 1520 1521 1521 1522 1523 1524 1525 1525 1526 1526 1526 1527 1527 1527
1501 1503 1503 1504 1504 1505 1505 1506 1506 1505 1505 1505 1505 1505 1505 1505 1505 1505 1505 1506 1507 1507 1508 1508 1508 1509 1510 1511 1512 1513 1514 1515 1515 1516 1517 1518 1518 1519 1520 1521 1522 1522 1523 1523 1524 1524 1524 1525 1525
1502 1503 1503 1503 1504 1504 1505 1505 1505 1503 1503 1504 1504 1503 1503 1503 1504 1504 1504 1505 1505 1505 1506 1506 1507 1507 1508 1509 1509 1510 1511 1512 1513 1514 1514 1515 1516 1517 1517 1518 1519 1520 1521 1521 1522 1522 1522 1523 1523
1502 1503 1503 1503 1503 1503 1504 1503 1504 1501 1502 1502 1502 1501 1502 1502 1502 1502 1502 1502 1502 1503 1503 1504 1505 1505 1505 1506 1507 1507 1509 1509 1510 1511 1511 1512 1513 1514 1514 1515 1516 1517 1518 1518 1519 1519 1520 1520 1520
1502 1504 1503 1503 1502 1503 1504 1502 1501 1499 1500 1500 1500 1500 1500 1500 1500 1499 1499 1500 1500 1500 1501 1502 1502 1503 1503 1503 1504 1504 1505 1506 1507 1508 1508 1509 1510 1511 1512 1512 1513 1514 1515 1515 1516 1517 1517 1517 1517
1503 1506 1507 1504 1502 1502 1506 1503 1498 1497 1497 1497 1497 1497 1497 1497 1497 1497 1497 1497 1497 1498 1498 1499 1499 1500 1500 1500 1501 1501 1502 1503 1504 1504 1505 1505 1506 1507 1508 1509 1510 1511 1511 1512 1513 1513 1514 1514 1514
1507 1509 1507 1505 1503 1503 1504 1502 1496 1496 1496 1495 1495 1495 1494 1494 1494 1494 1494 1494 1494 1495 1495 1496 1496 1497 1497 1497 1498 1498 1499 1499 1500 1500 1501 1501 1502 1503 1504 1505 1506 1507 1508 1508 1509 1510 1510 1510 1511
1508 1509 1508 1507 1503 1503 1503 1500 1495 1494 1494 1493 1492 1492 1491 1491 1491 1491 1491 1492 1492 1492 1492 1493 1493 1494 1494 1494 1494 1495 1495 1495 1496 1496 1497 1498 1499 1499 1500 1501 1502 1503 1504 1504 1505 1506 1506 1507 1507
1506 1508 1508 1506 1504 1504 1502 1498 1493 1491 1491 1489 1489 1488 1488 1488 1488 1489 1489 1489 1489 1489 1489 1490 1490 1490 1490 1490 1490 1490 1490 1491 1491 1492 1493 1494 1495 1495 1496 1497 1497 1498 1499 1500 1501 1501 1502 1503 1503
1506 1508 1509 1507 1504 1503 1502 1497 1490 1487 1487 1485 1485 1484 1485 1485 1485 1485 1485 1486 1486 1486 1486 1486 1486 1487 1487 1487 1487 1486 1486 1486 1487 1487 1488 1489 1490 1491 1491 1492 1492 1493 1494 1495 1496 1497 1497 1498 1499
1505 1508 1508 1508 1505 1504 1503 1494 1488 1484 1483 1482 1482 1481 1481 1482 1481 1482 1482 1483 1482 1482 1483 1483 1483 1483 1483 1483 1483 1483 1483 1482 1482 1483 1484 1485 1485 1486 1486 1487 1488 1488 1489 1490 1490 1492 1492 1493 1494
1504 1504 1505 1506 1509 1510 1507 1505 1488 1484 1483 1480 1479 1479 1479 1479 1479 1479 1479 1479 1479 1479 1480 1480 1480 1480 1480 1480 1479 1478 1477 1477 1477 1478 1479 1480 1481 1481 1481 1482 1482 1483 1484 1484 1485 1486 1487 1488 1489
1503 1504 1505 1507 1510 1512 1508 1509 1489 1484 1482 1479 1478 1477 1477 1477 1477 1477 1477 1477 1477 1477 1476 1476 1476 1476 1476 1476 1475 1474 1473 1473 1473 1473 1474 1474 1475 1476 1476 1476 1477 1477 1478 1479 1479 1480 1482 1483 1483
1503 1505 1507 1511 1512 1510 1506 1508 1492 1485 1479 1477 1476 1475 1475 1475 1474 1474 1474 1474 1474 1474 1473 1473 1472 1472 1472 1471 1471 1470 1469 1469 1469 1468 1468 1469 1469 1469 1470 1471 1471 1471 1472 1473 1473 1474 1475 1477 1478
1503 1508 1513 1512 1517 1510 1506 1505 1490 1477 1475 1475 1474 1474 1473 1473 1473 1472 1472 1472 1471 1471 1470 1469 1468 1468 1468 1467 1467 1466 1465 1464 1464 1463 1463 1463 1463 1463 1463 1464 1465 1465 1466 1467 1468 1468 1469 1470 1471
1504 1506 1511 1513 1514 1511 1507 1503 1483 1475 1473 1473 1473 1473 1472 1472 1471 1471 1471 1470 1469 1468 1467 1466 1465 1464 1463 1463 1462 1461 1461 1460 1459 1458 1459 1459 1458 1458 1458 1458 1459 1460 1461 1461 1461 1462 1462 1463 1464
1504 1508 1509 1517 1519 1517 1504 1496 1482 1473 1473 1472 1472 1471 1471 1471 1470 1469 1469 1468 1467 1465 1464 1463 1462 1460 1459 1458 1458 1457 1456 1455 1454 1454 1454 1453 1453 1453 1453 1453 1453 1454 1455 1455 1455 1455 1456 1457 1458
1502 1506 1512 1514 1512 1508 1500 1495 1484 1475 1472 1472 1471 1470 1470 1470 1469 1468 1466 1465 1464 1463 1462 1460 1459 1457 1455 1454 1453 1452 1451 1450 1450 1449 1449 1448 1448 1448 1447 1447 1447 1448 1448 1449 1449 1449 1450 1451 1451
1504 1506 1508 1514 1513 1512 1505 1488 1473 1472 1470 1470 1470 1469 1469 1468 1467 1466 1464 1463 1461 1460 1458 1457 1455 1453 1451 1450 1449 1447 1446 1446 1445 1444 1443 1443 1443 1442 1442 1441 1441 1441 1442 1442 1443 1443 1443 1444 1445
1501 1502 1506 1508 1511 1515 1513 1490 1468 1469 1469 1469 1469 1468 1467 1467 1465 1464 1462 1460 1458 1457 1455 1453 1451 1449 1447 1446 1444 1443 1442 1441 1440 1439 1438 1438 1437 1437 1436 1436 1435 1435 1435 1436 1436 1436 1437 1437 1438